User: anonymous   Login
Location: Hartman Creek State Park
(44.3257°N, 89.2134°W)
Time: 00:28:19
(UTC-05:00)
Language:

Terra - Orbit

View from above orbital plane
View from above orbital plane
View from above satellite
View from above satellite

Ground track
Ground track

The orbit data is extracted from the following two-line orbital elements,

1 25994U 99068A   16126.78885429  .00000161  00000-0  45781-4 0  9995
2 25994  98.2112 201.6773 0000992  77.2390 282.8916 14.57093119871347
Epoch (UTC): 05 May 2016 18:55:57
Eccentricity: 0.0000992
inclination: 98.2112°
perigee height: 702 km
apogee height: 703 km
right ascension of ascending node: 201.6773°
argument of perigee: 77.2390°
revolutions per day: 14.57093119
mean anomaly at epoch: 282.8916°
orbit number at epoch: 87134

The dashed part of the orbit path shows where the satellite is in the earth's shadow,  

DLR